Location: Champs
(48.8539°N, 2.6040°E)
Time: 13:37:25
(UTC+00:00)

PAYLOAD A - Pass Details

Date: 26 October 2021
Orbit: 692 x 831 km, 98.4° (Epoch: 06 December)

Event Time Altitude Azimuth Distance (km) Brightness Sun altitude
Rises 03:47:44 0° 13° (NNE) 3,245 7.6 -26.7°
Reaches altitude 10° 03:50:01 10° 12° (NNE) 2,335 6.7 -26.3°
Maximum altitude 03:55:11 77° 287° (WNW) 822 3.9 -25.5°
Enters shadow 03:55:24 75° 258° (WSW) 829 3.9 -25.5°
